Weather History for Klawock, AK

Change the Weather History Date:

Friday, March 14, 2014

  Actual Average Record
Temperature  
Mean Temperature 40 °F -  
Max Temperature 45 °F 41 °F 51 °F (2003)
Min Temperature 36 °F 29 °F 10 °F (2006)
Degree Days  
Heating Degree Days 25    
Moisture  
Dew Point 36 °F    
Average Humidity 84    
Maximum Humidity 93    
Minimum Humidity 73    
Precipitation  
Precipitation 0.15 in - - ()
Sea Level Pressure  
Sea Level Pressure 29.65 in    
Wind  
Wind Speed 6 mph (SSW)    
Max Wind Speed 12 mph    
Max Gust Speed 26 mph    
Visibility 9 miles    
Events Rain , Snow    
Averages and records for this station are not official NWS values.
T = Trace of Precipitation, MM = Missing Value Source: NWS Daily Summary

Daily Weather History Graph

Daily Weather History Graph

Search for Another Location

Airport:

Trip Planner

Search our weather history database for the weather conditions in past years. The results will help you decide how hot, cold, wet, or windy it might be!

Date:

Astronomy

Mar. 14, 2014 Rise Set
Actual Time 7:09 AM AKDT 6:54 PM AKDT
Civil Twilight 6:33 AM AKDT 7:30 PM AKDT
Nautical Twilight 5:50 AM AKDT 8:14 PM AKDT
Astronomical Twilight 5:05 AM AKDT 8:59 PM AKDT
Moon 5:12 PM AKDT (3/14) 6:07 AM AKDT (3/14)
Length of Visible Light 12h 57m
Length of Day
11h 44m
Waxing Gibbous, 97% of the Moon is Illuminated
Mar 14
Waxing Gibbous
Mar 16
Full
Mar 23
Last Quarter
Mar 30
New
Apr 7
First Quarter

Hourly Weather History & Observations

Time (AKDT) Temp. Windchill Dew Point Humidity Pressure Visibility Wind Dir Wind Speed Gust Speed Precip Events Conditions
12:53 AM 39.0 °F 34.8 °F 33.1 °F 79% 29.31 in 10.0 mi Variable 5.8 mph - 0.00 in   Overcast
1:53 AM 39.9 °F - 32.0 °F 73% 29.31 in 10.0 mi Calm Calm - N/A   Overcast
2:53 AM 39.0 °F 33.4 °F 34.0 °F 82% 29.34 in 8.0 mi SSE 8.1 mph 18.4 mph 0.01 in Rain Light Rain
3:08 AM 37.9 °F 30.9 °F 34.0 °F 86% 29.35 in 5.0 mi South 10.4 mph 23.0 mph 0.00 in Snow Light Snow
4:51 AM 39.2 °F 34.2 °F 37.4 °F 93% 29.41 in 10.0 mi Variable 6.9 mph - 0.03 in Rain Light Rain
4:53 AM 39.9 °F 35.1 °F 37.0 °F 89% 29.42 in 10.0 mi Variable 6.9 mph - 0.03 in Rain Light Rain
5:44 AM 41.0 °F 36.4 °F 37.0 °F 86% 29.44 in 8.0 mi SSW 6.9 mph - 0.01 in Rain Light Rain
5:53 AM 41.0 °F 37.1 °F 37.9 °F 89% 29.45 in 9.0 mi Variable 5.8 mph - 0.01 in Rain Light Rain
6:14 AM 41.0 °F 37.1 °F 37.0 °F 86% 29.45 in 10.0 mi South 5.8 mph - 0.00 in   Overcast
6:41 AM 41.0 °F 37.1 °F 37.0 °F 86% 29.47 in 10.0 mi Variable 5.8 mph - 0.01 in Rain Light Rain
6:53 AM 41.0 °F 36.4 °F 37.0 °F 86% 29.48 in 9.0 mi South 6.9 mph - 0.01 in Rain Light Rain
7:27 AM 41.0 °F 37.1 °F 37.0 °F 86% 29.48 in 10.0 mi SSE 5.8 mph - 0.01 in   Overcast
7:49 AM 41.0 °F 37.1 °F 37.4 °F 87% 29.48 in 10.0 mi Variable 5.8 mph - 0.01 in   Overcast
8:01 AM 41.0 °F 37.1 °F 37.0 °F 86% 29.49 in 10.0 mi SSE 5.8 mph - 0.01 in Rain Light Rain
8:25 AM 39.9 °F 36.7 °F 37.9 °F 93% 29.51 in 8.0 mi Variable 4.6 mph - 0.01 in Rain Light Rain
8:53 AM 39.9 °F 36.7 °F 37.9 °F 93% 29.53 in 6.0 mi Variable 4.6 mph - 0.04 in Rain Light Rain
9:53 AM 41.0 °F 37.1 °F 37.9 °F 89% 29.57 in 10.0 mi Variable 5.8 mph - 0.00 in Rain Light Rain
10:53 AM 43.0 °F 39.5 °F 39.9 °F 89% 29.61 in 10.0 mi SSW 5.8 mph - 0.00 in Rain Light Rain
11:53 AM 44.1 °F 38.6 °F 39.0 °F 82% 29.65 in 10.0 mi SSW 10.4 mph 20.7 mph 0.00 in   Overcast
12:08 PM 44.1 °F 38.6 °F 37.9 °F 79% 29.66 in 10.0 mi SSW 10.4 mph 19.6 mph N/A   Mostly Cloudy
12:43 PM 43.0 °F 38.8 °F 37.9 °F 82% 29.69 in 10.0 mi SSW 6.9 mph 18.4 mph 0.01 in   Overcast
12:50 PM 42.8 °F 38.6 °F 37.4 °F 81% 29.70 in 10.0 mi SSW 6.9 mph - 0.01 in   Overcast
12:53 PM 43.0 °F 38.2 °F 37.9 °F 82% 29.70 in 10.0 mi SSW 8.1 mph - 0.01 in   Overcast
1:53 PM 44.1 °F 39.5 °F 37.0 °F 76% 29.74 in 10.0 mi SSW 8.1 mph - N/A   Overcast
2:25 PM 39.0 °F 34.8 °F 35.1 °F 86% 29.77 in 4.0 mi Variable 5.8 mph 26.5 mph 0.01 in Rain Light Rain
2:53 PM 41.0 °F 35.2 °F 37.0 °F 86% 29.79 in 10.0 mi SW 9.2 mph - 0.01 in Rain Light Rain
3:53 PM 42.1 °F 38.4 °F 37.0 °F 82% 29.83 in 10.0 mi SW 5.8 mph - 0.01 in   Overcast
4:07 PM 42.1 °F 39.2 °F 36.0 °F 79% 29.82 in 10.0 mi Variable 4.6 mph - N/A   Mostly Cloudy
4:34 PM 39.9 °F 32.9 °F 35.1 °F 83% 29.84 in 10.0 mi West 11.5 mph - N/A   Overcast
4:53 PM 39.9 °F 35.1 °F 34.0 °F 79% 29.85 in 10.0 mi SW 6.9 mph - 0.00 in Rain Light Rain
5:53 PM 39.9 °F 35.8 °F 34.0 °F 79% 29.87 in 10.0 mi Variable 5.8 mph - 0.00 in Rain Light Rain
6:49 PM 37.4 °F 29.8 °F 33.8 °F 87% 29.90 in 5.0 mi WSW 11.5 mph 23.0 mph 0.02 in Rain Light Rain
6:53 PM 36.0 °F 30.3 °F 33.1 °F 89% 29.90 in 5.0 mi SW 6.9 mph 20.7 mph 0.02 in Rain Light Rain
7:19 PM 37.0 °F 32.4 °F 33.1 °F 86% 29.90 in 10.0 mi SSE 5.8 mph - 0.00 in   Overcast
7:53 PM 37.0 °F - 33.1 °F 86% 29.91 in 10.0 mi Calm Calm - 0.00 in   Overcast
8:53 PM 37.0 °F 31.6 °F 32.0 °F 82% 29.93 in 10.0 mi SSE 6.9 mph - N/A   Overcast
9:53 PM 37.9 °F 34.4 °F 32.0 °F 79% 29.94 in 10.0 mi SE 4.6 mph - N/A   Overcast
10:53 PM 37.9 °F 32.7 °F 32.0 °F 79% 29.93 in 10.0 mi Variable 6.9 mph - N/A   Overcast
11:53 PM 37.9 °F 35.5 °F 30.9 °F 76% 29.91 in 10.0 mi Variable 3.5 mph - N/A   Overcast